Location: Catacaguana
(10.4120°N, 66.7591°W)
Time: 04:19:29
(UTC+00:00)

BREEZE-M DEB (TANK) - Pass Details

Date: 27 May 2022
Orbit: 312 x 16641 km, 49.5° (Epoch: 22 June)

Event Time Altitude Azimuth Distance (km) Brightness Sun altitude
Rises 00:07:44 0° 196° (SSW) 2,704 5.7 -19.6°
Reaches altitude 10° 00:09:11 10° 188° (S) 2,135 5.1 -19.9°
Maximum altitude 00:13:33 45° 113° (ESE) 1,676 4.2 -20.8°
Drops below altitude 10° 00:29:43 10° 46° (NE) 7,626 7.9 -24.3°
Sets 00:41:55 0° 42° (NE) 11,524 8.9 -26.9°
